AAY408 KCVG-KPGD

Flight info

Callsign AAY408
Flight time 1h 58m
Altitude 37000
Route KENLN6 SHIPR VXV IRQ/N0442F380 KYYUU LUBBR4
Aircraft A20N/M-SDE2E3FGHIRWXY/LB1

Departure

Time 2026-04-28 21:15
Airport Cincinnati Northern Kentucky International Airport (KCVG)

Arrival

Time 2026-04-28 23:14
Airport Punta Gorda Airport (KPGD)
Time Latitude Longitude Altitude Speed Heading
2026-04-28 20:55 39.04979 -84.65313 874 ft 0 kts
2026-04-28 21:10 39.04963 -84.65314 890 ft 2 kts
2026-04-28 21:10 39.04947 -84.65315 890 ft 2 kts
2026-04-28 21:11 39.04930 -84.65317 890 ft 2 kts
2026-04-28 21:11 39.04914 -84.65320 889 ft 2 kts 13°
2026-04-28 21:11 39.04898 -84.65326 889 ft 2 kts 23°
2026-04-28 21:11 39.04884 -84.65337 889 ft 2 kts 46°
2026-04-28 21:12 39.04877 -84.65356 888 ft 2 kts 83°
2026-04-28 21:12 39.04876 -84.65361 888 ft 0 kts 89°
2026-04-28 21:13 39.04876 -84.65266 890 ft 17 kts 90°
2026-04-28 21:13 39.04860 -84.65098 895 ft 17 kts 137°
2026-04-28 21:13 39.04793 -84.65100 894 ft 7 kts 262°
2026-04-28 21:14 39.04798 -84.65255 891 ft 24 kts 250°
2026-04-28 21:14 39.04654 -84.65299 888 ft 18 kts 199°
2026-04-28 21:14 39.04632 -84.65355 888 ft 11 kts 266°
2026-04-28 21:14 39.04631 -84.65732 879 ft 79 kts 270°
2026-04-28 21:15 39.04630 -84.66770 883 ft 151 kts 270°
2026-04-28 21:15 39.04632 -84.68335 1084 ft 188 kts 270°
2026-04-28 21:15 39.04634 -84.70056 1826 ft 197 kts 270°
2026-04-28 21:15 39.04630 -84.71834 2801 ft 200 kts 269°
2026-04-28 21:16 39.04622 -84.73688 3287 ft 217 kts 269°
2026-04-28 21:16 39.04619 -84.75724 3621 ft 238 kts 269°
2026-04-28 21:16 39.04617 -84.77910 4228 ft 245 kts 269°
2026-04-28 21:16 39.04613 -84.80052 5046 ft 241 kts 269°
2026-04-28 21:17 39.04608 -84.82228 5742 ft 245 kts 269°
2026-04-28 21:17 39.04605 -84.84448 6398 ft 251 kts 269°
2026-04-28 21:17 39.04513 -84.86712 7026 ft 256 kts 261°
2026-04-28 21:17 39.03916 -84.88873 7665 ft 261 kts 239°
2026-04-28 21:18 39.02646 -84.90587 8301 ft 271 kts 216°
2026-04-28 21:18 39.00859 -84.91456 8961 ft 284 kts 191°
2026-04-28 21:18 38.98859 -84.91194 9587 ft 297 kts 164°
2026-04-28 21:18 38.96938 -84.90110 10184 ft 306 kts 156°
2026-04-28 21:19 38.95015 -84.88831 10478 ft 324 kts 155°
2026-04-28 21:19 38.92936 -84.87511 10731 ft 341 kts 162°
2026-04-28 21:19 38.90582 -84.87007 11047 ft 348 kts 182°
2026-04-28 21:19 38.88145 -84.87098 11555 ft 353 kts 186°
2026-04-28 21:20 38.85668 -84.87292 12144 ft 358 kts 187°
2026-04-28 21:20 38.83162 -84.87405 12766 ft 365 kts 181°
2026-04-28 21:20 38.80626 -84.86879 13371 ft 374 kts 165°
2026-04-28 21:20 38.78258 -84.85411 13933 ft 383 kts 148°
2026-04-28 21:21 38.76125 -84.83313 14491 ft 388 kts 142°
2026-04-28 21:21 38.74077 -84.81098 15046 ft 391 kts 142°
2026-04-28 21:21 38.71995 -84.78827 15626 ft 394 kts 142°
2026-04-28 21:21 38.69888 -84.76541 16180 ft 398 kts 143°
2026-04-28 21:22 38.67763 -84.74251 16714 ft 402 kts 143°
2026-04-28 21:22 38.65602 -84.71932 17270 ft 406 kts 143°
2026-04-28 21:22 38.63428 -84.69606 17823 ft 409 kts 144°
2026-04-28 21:22 38.61983 -84.68062 18177 ft 412 kts 144°
2026-04-28 21:23 38.59016 -84.64895 18831 ft 417 kts 144°
2026-04-28 21:23 38.56772 -84.62505 19297 ft 421 kts 144°
2026-04-28 21:23 38.54513 -84.60101 19758 ft 425 kts 144°
2026-04-28 21:23 38.52230 -84.57673 20214 ft 428 kts 145°
2026-04-28 21:24 38.49930 -84.55240 20677 ft 431 kts 146°
2026-04-28 21:24 38.47507 -84.53067 21112 ft 429 kts 155°
2026-04-28 21:24 38.44831 -84.51473 21552 ft 423 kts 167°
2026-04-28 21:24 38.41995 -84.50591 21987 ft 415 kts 179°
2026-04-28 21:25 38.39124 -84.50261 22462 ft 413 kts 184°
2026-04-28 21:25 38.36245 -84.50072 22933 ft 415 kts 185°
2026-04-28 21:25 38.33342 -84.49898 23403 ft 417 kts 185°
2026-04-28 21:25 38.30471 -84.49721 23817 ft 420 kts 185°
2026-04-28 21:26 38.27539 -84.49534 24181 ft 424 kts 185°
2026-04-28 21:26 38.24586 -84.49341 24528 ft 427 kts 185°
2026-04-28 21:26 38.21605 -84.49143 24875 ft 430 kts 186°
2026-04-28 21:26 38.18608 -84.48942 25218 ft 432 kts 186°
2026-04-28 21:27 38.15583 -84.48739 25541 ft 435 kts 186°
2026-04-28 21:27 38.13567 -84.48603 25744 ft 437 kts 186°
2026-04-28 21:27 38.10516 -84.48398 26057 ft 440 kts 186°
2026-04-28 21:27 38.07451 -84.48192 26373 ft 443 kts 186°
2026-04-28 21:28 38.04364 -84.47984 26675 ft 445 kts 187°
2026-04-28 21:28 38.01258 -84.47775 26969 ft 448 kts 187°
2026-04-28 21:28 37.97111 -84.47411 27328 ft 457 kts 182°
2026-04-28 21:28 37.94973 -84.46990 27524 ft 463 kts 180°
2026-04-28 21:29 37.91795 -84.46201 27797 ft 468 kts 178°
2026-04-28 21:29 37.88604 -84.45299 28057 ft 472 kts 177°
2026-04-28 21:29 37.85399 -84.44344 28306 ft 475 kts 176°
2026-04-28 21:29 37.82180 -84.43372 28558 ft 477 kts 177°
2026-04-28 21:30 37.78933 -84.42400 28807 ft 480 kts 177°
2026-04-28 21:30 37.75676 -84.41437 29061 ft 482 kts 177°
2026-04-28 21:30 37.72402 -84.40481 29290 ft 484 kts 178°
2026-04-28 21:30 37.69108 -84.39530 29532 ft 487 kts 178°
2026-04-28 21:31 37.65842 -84.38592 29765 ft 489 kts 178°
2026-04-28 21:31 37.62526 -84.37641 30079 ft 489 kts 178°
2026-04-28 21:31 37.59206 -84.36689 30384 ft 488 kts 178°
2026-04-28 21:31 37.55901 -84.35739 30805 ft 485 kts 179°
2026-04-28 21:32 37.52621 -84.34793 31252 ft 480 kts 179°
2026-04-28 21:32 37.49373 -84.33859 31685 ft 477 kts 179°
2026-04-28 21:32 37.46150 -84.32936 32087 ft 473 kts 180°
2026-04-28 21:32 37.42944 -84.32020 32429 ft 471 kts 180°
2026-04-28 21:33 37.39790 -84.31122 32816 ft 468 kts 180°
2026-04-28 21:33 37.36620 -84.30222 33176 ft 466 kts 180°
2026-04-28 21:33 37.33469 -84.29327 33551 ft 463 kts 181°
2026-04-28 21:33 37.30332 -84.28437 33900 ft 461 kts 181°
2026-04-28 21:34 37.27212 -84.27552 34209 ft 458 kts 181°
2026-04-28 21:34 37.24103 -84.26672 34456 ft 457 kts 181°
2026-04-28 21:34 37.21007 -84.25797 34650 ft 457 kts 181°
2026-04-28 21:34 37.17903 -84.24923 34846 ft 457 kts 181°
2026-04-28 21:35 37.14804 -84.24049 35027 ft 457 kts 181°
2026-04-28 21:35 37.11699 -84.23173 35241 ft 456 kts 181°
2026-04-28 21:35 37.08612 -84.22300 35468 ft 455 kts 181°
2026-04-28 21:35 37.05566 -84.21439 35680 ft 453 kts 181°
2026-04-28 21:36 37.02444 -84.20558 35878 ft 453 kts 181°
2026-04-28 21:36 36.99412 -84.19704 36070 ft 452 kts 181°
2026-04-28 21:36 36.96350 -84.18842 36263 ft 451 kts 181°
2026-04-28 21:36 36.93284 -84.17980 36427 ft 450 kts 181°
2026-04-28 21:37 36.90226 -84.17120 36597 ft 449 kts 181°
2026-04-28 21:37 36.87167 -84.16263 36729 ft 450 kts 181°
2026-04-28 21:37 36.84116 -84.15409 36866 ft 450 kts 182°
2026-04-28 21:37 36.81084 -84.14561 37005 ft 450 kts 181°
2026-04-28 21:38 36.74957 -84.12848 37042 ft 451 kts 181°
2026-04-28 21:38 36.68836 -84.11135 37029 ft 450 kts 181°
2026-04-28 21:39 36.62729 -84.09430 37051 ft 450 kts 181°
2026-04-28 21:39 36.56598 -84.07724 37058 ft 451 kts 181°
2026-04-28 21:40 36.50510 -84.06029 37061 ft 451 kts 181°
2026-04-28 21:40 36.44377 -84.04326 37057 ft 452 kts 181°
2026-04-28 21:41 36.38226 -84.02622 37051 ft 453 kts 181°
2026-04-28 21:41 36.32077 -84.00920 37045 ft 453 kts 181°
2026-04-28 21:42 36.25913 -83.99217 37054 ft 454 kts 181°
2026-04-28 21:42 36.19779 -83.97524 37063 ft 454 kts 180°
2026-04-28 21:43 36.13609 -83.95824 37070 ft 454 kts 180°
2026-04-28 21:43 36.08118 -83.94313 37058 ft 454 kts 180°
2026-04-28 21:44 36.01939 -83.92616 37056 ft 454 kts 180°
2026-04-28 21:44 35.95761 -83.90922 37058 ft 455 kts 180°
2026-04-28 21:45 35.89633 -83.88478 37054 ft 479 kts 164°
2026-04-28 21:45 35.83818 -83.84227 37082 ft 490 kts 158°
2026-04-28 21:46 35.78154 -83.79596 37083 ft 493 kts 156°
2026-04-28 21:46 35.72454 -83.74879 37083 ft 493 kts 156°
2026-04-28 21:47 35.66743 -83.70212 37076 ft 493 kts 157°
2026-04-28 21:47 35.60998 -83.65564 37084 ft 493 kts 157°
2026-04-28 21:48 35.55258 -83.60938 37086 ft 494 kts 157°
2026-04-28 21:48 35.49539 -83.56336 37122 ft 495 kts 157°
2026-04-28 21:49 35.43779 -83.51707 37104 ft 495 kts 156°
2026-04-28 21:49 35.38009 -83.47077 37118 ft 495 kts 156°
2026-04-28 21:50 35.32243 -83.42457 37116 ft 495 kts 156°
2026-04-28 21:50 35.26473 -83.37842 37123 ft 496 kts 156°
2026-04-28 21:51 35.20687 -83.33225 37113 ft 497 kts 156°
2026-04-28 21:51 35.14892 -83.28608 37119 ft 497 kts 156°
2026-04-28 21:52 35.09135 -83.24028 37121 ft 497 kts 156°
2026-04-28 21:52 35.03332 -83.19419 37124 ft 498 kts 156°
2026-04-28 21:53 34.97521 -83.14816 37120 ft 498 kts 156°
2026-04-28 21:53 34.91686 -83.10198 37127 ft 500 kts 156°
2026-04-28 21:54 34.85849 -83.05585 37134 ft 500 kts 156°
2026-04-28 21:54 34.80013 -83.00979 37137 ft 500 kts 156°
2026-04-28 21:55 34.74171 -82.96379 37139 ft 500 kts 156°
2026-04-28 21:55 34.68316 -82.91778 37140 ft 501 kts 155°
2026-04-28 21:56 34.62500 -82.87216 37137 ft 501 kts 155°
2026-04-28 21:56 34.56641 -82.82628 37137 ft 501 kts 155°
2026-04-28 21:57 34.50776 -82.78041 37146 ft 501 kts 155°
2026-04-28 21:57 34.44906 -82.73458 37144 ft 501 kts 155°
2026-04-28 21:58 34.39058 -82.68899 37146 ft 500 kts 155°
2026-04-28 21:58 34.33204 -82.64345 37146 ft 500 kts 155°
2026-04-28 21:59 34.27338 -82.59790 37143 ft 501 kts 155°
2026-04-28 22:00 34.18562 -82.52989 36868 ft 502 kts 154°
2026-04-28 22:00 34.15623 -82.50716 36344 ft 501 kts 154°
2026-04-28 22:00 34.12693 -82.48447 36166 ft 498 kts 154°
2026-04-28 22:01 34.06828 -82.43918 36151 ft 500 kts 154°
2026-04-28 22:01 34.00954 -82.39392 36143 ft 500 kts 153°
2026-04-28 22:02 33.95088 -82.34877 36144 ft 499 kts 153°
2026-04-28 22:02 33.89274 -82.30410 36143 ft 498 kts 153°
2026-04-28 22:03 33.83427 -82.25924 36141 ft 497 kts 153°
2026-04-28 22:03 33.77591 -82.21455 36139 ft 496 kts 153°
2026-04-28 22:04 33.71567 -82.17586 36142 ft 483 kts 168°
2026-04-28 22:04 33.68342 -82.16598 36138 ft 472 kts 179°
2026-04-28 22:04 33.65108 -82.16309 36140 ft 463 kts 187°
2026-04-28 22:05 33.58675 -82.16336 36139 ft 462 kts 188°
2026-04-28 22:05 33.52236 -82.16429 36137 ft 463 kts 188°
2026-04-28 22:06 33.45791 -82.16514 36137 ft 463 kts 187°
2026-04-28 22:06 33.39343 -82.16595 36139 ft 463 kts 187°
2026-04-28 22:07 33.32937 -82.16674 36137 ft 463 kts 187°
2026-04-28 22:07 33.26489 -82.16753 36124 ft 463 kts 187°
2026-04-28 22:08 33.20056 -82.16831 36128 ft 460 kts 187°
2026-04-28 22:08 33.13656 -82.16910 36131 ft 460 kts 187°
2026-04-28 22:09 33.07246 -82.16989 36132 ft 460 kts 186°
2026-04-28 22:09 33.00867 -82.17067 36134 ft 460 kts 186°
2026-04-28 22:10 32.94446 -82.17145 36130 ft 460 kts 186°
2026-04-28 22:10 32.88042 -82.17223 36131 ft 461 kts 186°
2026-04-28 22:11 32.81616 -82.17301 36136 ft 461 kts 186°
2026-04-28 22:11 32.75236 -82.17378 36134 ft 461 kts 186°
2026-04-28 22:12 32.68810 -82.17456 36134 ft 461 kts 186°
2026-04-28 22:12 32.62432 -82.17533 36136 ft 461 kts 186°
2026-04-28 22:13 32.56007 -82.17611 36129 ft 461 kts 186°
2026-04-28 22:13 32.50666 -82.17675 36131 ft 461 kts 186°
2026-04-28 22:14 32.43204 -82.17765 36130 ft 461 kts 186°
2026-04-28 22:14 32.36785 -82.17842 36129 ft 461 kts 186°
2026-04-28 22:15 32.31408 -82.17906 36128 ft 461 kts 186°
2026-04-28 22:15 32.24988 -82.17983 36129 ft 461 kts 185°
2026-04-28 22:16 32.18568 -82.18060 36123 ft 461 kts 185°
2026-04-28 22:16 32.12191 -82.18137 36120 ft 461 kts 185°
2026-04-28 22:17 32.05773 -82.18213 36119 ft 461 kts 185°
2026-04-28 22:17 31.99349 -82.18290 36119 ft 461 kts 185°
2026-04-28 22:18 31.92932 -82.18366 36122 ft 461 kts 185°
2026-04-28 22:18 31.86506 -82.18443 36127 ft 461 kts 185°
2026-04-28 22:19 31.80085 -82.18519 36130 ft 461 kts 185°
2026-04-28 22:19 31.73674 -82.18595 36135 ft 460 kts 185°
2026-04-28 22:20 31.67262 -82.18671 36126 ft 460 kts 185°
2026-04-28 22:20 31.60898 -82.18746 36129 ft 460 kts 185°
2026-04-28 22:21 31.54496 -82.18822 36128 ft 460 kts 185°
2026-04-28 22:21 31.48085 -82.18897 36128 ft 460 kts 185°
2026-04-28 22:22 31.41672 -82.18973 36123 ft 460 kts 184°
2026-04-28 22:22 31.35262 -82.19049 36120 ft 460 kts 184°
2026-04-28 22:23 31.28889 -82.19123 36118 ft 461 kts 184°
2026-04-28 22:23 31.22457 -82.19199 36111 ft 461 kts 184°
2026-04-28 22:24 31.16029 -82.19274 36119 ft 462 kts 184°
2026-04-28 22:24 31.09592 -82.19350 36137 ft 462 kts 184°
2026-04-28 22:25 31.03195 -82.19425 36165 ft 463 kts 184°
2026-04-28 22:25 30.96733 -82.19500 36205 ft 463 kts 184°
2026-04-28 22:26 30.90274 -82.19575 36230 ft 464 kts 184°
2026-04-28 22:26 30.83822 -82.19650 36234 ft 465 kts 184°
2026-04-28 22:27 30.77339 -82.19726 36243 ft 465 kts 184°
2026-04-28 22:27 30.70857 -82.19801 36261 ft 466 kts 184°
2026-04-28 22:28 30.64413 -82.19897 36262 ft 466 kts 186°
2026-04-28 22:28 30.57961 -82.20521 36267 ft 464 kts 189°
2026-04-28 22:29 30.51520 -82.21259 36124 ft 466 kts 189°
2026-04-28 22:29 30.48283 -82.21629 35878 ft 467 kts 188°
2026-04-28 22:29 30.45045 -82.21997 35622 ft 467 kts 188°
2026-04-28 22:29 30.41809 -82.22363 35378 ft 466 kts 188°
2026-04-28 22:30 30.38618 -82.22724 35141 ft 466 kts 188°
2026-04-28 22:30 30.35385 -82.23089 34895 ft 465 kts 188°
2026-04-28 22:30 30.32168 -82.23452 34658 ft 464 kts 188°
2026-04-28 22:30 30.28952 -82.23815 34414 ft 463 kts 188°
2026-04-28 22:31 30.25746 -82.24177 34158 ft 462 kts 188°
2026-04-28 22:31 30.22548 -82.24537 33887 ft 461 kts 187°
2026-04-28 22:31 30.19392 -82.24892 33614 ft 461 kts 187°
2026-04-28 22:31 30.16188 -82.25146 33344 ft 463 kts 182°
2026-04-28 22:32 30.12924 -82.24941 33072 ft 464 kts 176°
2026-04-28 22:32 30.09748 -82.24555 32837 ft 465 kts 175°
2026-04-28 22:32 30.06532 -82.24131 32582 ft 466 kts 175°
2026-04-28 22:32 30.03316 -82.23706 32330 ft 465 kts 174°
2026-04-28 22:33 30.00105 -82.23285 32074 ft 463 kts 174°
2026-04-28 22:33 29.96912 -82.22869 31816 ft 461 kts 174°
2026-04-28 22:33 29.93724 -82.22456 31559 ft 459 kts 174°
2026-04-28 22:33 29.90549 -82.22046 31310 ft 457 kts 174°
2026-04-28 22:34 29.87391 -82.21639 31061 ft 455 kts 174°
2026-04-28 22:34 29.84249 -82.21235 30821 ft 454 kts 174°
2026-04-28 22:34 29.81150 -82.20837 30584 ft 452 kts 174°
2026-04-28 22:34 29.78028 -82.20436 30346 ft 451 kts 174°
2026-04-28 22:35 29.74910 -82.20036 30094 ft 449 kts 174°
2026-04-28 22:35 29.71809 -82.19638 29823 ft 448 kts 174°
2026-04-28 22:35 29.68717 -82.19241 29554 ft 446 kts 174°
2026-04-28 22:35 29.65641 -82.18847 29292 ft 444 kts 174°
2026-04-28 22:36 29.62573 -82.18454 29018 ft 442 kts 174°
2026-04-28 22:36 29.59523 -82.18064 28750 ft 441 kts 174°
2026-04-28 22:36 29.56474 -82.17678 28493 ft 439 kts 174°
2026-04-28 22:36 29.53435 -82.17294 28232 ft 437 kts 174°
2026-04-28 22:37 29.50414 -82.16913 27975 ft 436 kts 174°
2026-04-28 22:37 29.47399 -82.16533 27722 ft 434 kts 174°
2026-04-28 22:37 29.44401 -82.16156 27478 ft 433 kts 174°
2026-04-28 22:37 29.41401 -82.15778 27212 ft 431 kts 174°
2026-04-28 22:38 29.38425 -82.15404 26963 ft 430 kts 174°
2026-04-28 22:38 29.35493 -82.15035 26719 ft 428 kts 174°
2026-04-28 22:38 29.32537 -82.14664 26473 ft 427 kts 174°
2026-04-28 22:38 29.29588 -82.14294 26229 ft 425 kts 174°
2026-04-28 22:39 29.26654 -82.13926 25993 ft 424 kts 174°
2026-04-28 22:39 29.23725 -82.13558 25753 ft 422 kts 174°
2026-04-28 22:39 29.20807 -82.13193 25519 ft 421 kts 174°
2026-04-28 22:39 29.17896 -82.12847 25281 ft 419 kts 176°
2026-04-28 22:40 29.14984 -82.12689 25053 ft 418 kts 179°
2026-04-28 22:40 29.12075 -82.12615 24820 ft 416 kts 180°
2026-04-28 22:40 29.09182 -82.12558 24597 ft 415 kts 180°
2026-04-28 22:40 29.06330 -82.12502 24374 ft 414 kts 180°
2026-04-28 22:41 29.03422 -82.12444 24147 ft 412 kts 180°
2026-04-28 22:41 29.00554 -82.12386 23926 ft 411 kts 180°
2026-04-28 22:41 28.97737 -82.12328 23704 ft 410 kts 180°
2026-04-28 22:41 28.94894 -82.12269 23441 ft 408 kts 180°
2026-04-28 22:42 28.92056 -82.12210 23168 ft 407 kts 180°
2026-04-28 22:42 28.89235 -82.12151 22907 ft 405 kts 180°
2026-04-28 22:42 28.86416 -82.12092 22639 ft 404 kts 180°
2026-04-28 22:42 28.83578 -82.12033 22008 ft 411 kts 180°
2026-04-28 22:43 28.80691 -82.11974 21191 ft 416 kts 180°
2026-04-28 22:43 28.77792 -82.11913 20545 ft 416 kts 180°
2026-04-28 22:43 28.74907 -82.11853 19990 ft 413 kts 180°
2026-04-28 22:43 28.72037 -82.11793 19441 ft 410 kts 180°
2026-04-28 22:44 28.69190 -82.11726 18911 ft 408 kts 179°
2026-04-28 22:44 28.66375 -82.11480 18386 ft 405 kts 175°
2026-04-28 22:44 28.63579 -82.11104 17778 ft 403 kts 173°
2026-04-28 22:44 28.60842 -82.10710 17201 ft 400 kts 173°
2026-04-28 22:45 28.58095 -82.10312 16629 ft 397 kts 173°
2026-04-28 22:45 28.55364 -82.09918 16067 ft 394 kts 173°
2026-04-28 22:45 28.52644 -82.09528 15507 ft 392 kts 173°
2026-04-28 22:45 28.49943 -82.09139 14939 ft 389 kts 172°
2026-04-28 22:46 28.47286 -82.08599 14396 ft 387 kts 167°
2026-04-28 22:46 28.44664 -82.07945 13851 ft 384 kts 166°
2026-04-28 22:46 28.42063 -82.07274 13294 ft 381 kts 166°
2026-04-28 22:46 28.39500 -82.06611 12786 ft 376 kts 166°
2026-04-28 22:47 28.36966 -82.05959 12356 ft 369 kts 166°
2026-04-28 22:47 28.34498 -82.05326 12137 ft 357 kts 166°
2026-04-28 22:47 28.32122 -82.04718 11998 ft 346 kts 165°
2026-04-28 22:47 28.29772 -82.04151 11845 ft 345 kts 168°
2026-04-28 22:48 28.27398 -82.03738 11701 ft 345 kts 170°
2026-04-28 22:48 28.25019 -82.03375 11577 ft 345 kts 171°
2026-04-28 22:48 28.22639 -82.03021 11423 ft 344 kts 171°
2026-04-28 22:48 28.20270 -82.02669 11280 ft 343 kts 171°
2026-04-28 22:49 28.17902 -82.02316 11136 ft 342 kts 171°
2026-04-28 22:49 28.15578 -82.01969 11000 ft 341 kts 171°
2026-04-28 22:49 28.13211 -82.01702 10816 ft 341 kts 178°
2026-04-28 22:49 28.10877 -82.02161 10701 ft 342 kts 200°
2026-04-28 22:50 28.08716 -82.03299 10585 ft 343 kts 207°
2026-04-28 22:50 28.06620 -82.04584 10437 ft 342 kts 208°
2026-04-28 22:50 28.04534 -82.05886 10278 ft 342 kts 208°
2026-04-28 22:50 28.02449 -82.07181 10049 ft 341 kts 208°
2026-04-28 22:51 28.00405 -82.08442 9803 ft 334 kts 207°
2026-04-28 22:51 27.98392 -82.09678 9565 ft 324 kts 207°
2026-04-28 22:51 27.96440 -82.10873 9309 ft 314 kts 207°
2026-04-28 22:51 27.94545 -82.12031 9062 ft 306 kts 207°
2026-04-28 22:52 27.92687 -82.13165 8819 ft 302 kts 207°
2026-04-28 22:52 27.90842 -82.14290 8574 ft 301 kts 207°
2026-04-28 22:52 27.88997 -82.15414 8321 ft 300 kts 207°
2026-04-28 22:52 27.87164 -82.16530 8079 ft 298 kts 207°
2026-04-28 22:53 27.85343 -82.17639 7831 ft 297 kts 207°
2026-04-28 22:53 27.83530 -82.18742 7608 ft 295 kts 207°
2026-04-28 22:53 27.81732 -82.19837 7483 ft 293 kts 207°
2026-04-28 22:53 27.79964 -82.20912 7363 ft 292 kts 207°
2026-04-28 22:54 27.78181 -82.21999 7229 ft 292 kts 208°
2026-04-28 22:54 27.76509 -82.23291 6997 ft 291 kts 218°
2026-04-28 22:54 27.74963 -82.24763 6773 ft 290 kts 220°
2026-04-28 22:54 27.73448 -82.26264 6526 ft 289 kts 220°
2026-04-28 22:55 27.71945 -82.27758 6276 ft 287 kts 220°
2026-04-28 22:55 27.70445 -82.29246 6034 ft 287 kts 220°
2026-04-28 22:55 27.68947 -82.30725 5782 ft 286 kts 220°
2026-04-28 22:55 27.67449 -82.32203 5534 ft 285 kts 220°
2026-04-28 22:56 27.65959 -82.33670 5287 ft 283 kts 219°
2026-04-28 22:56 27.64502 -82.35106 5170 ft 272 kts 219°
2026-04-28 22:56 27.63100 -82.36469 5009 ft 262 kts 216°
2026-04-28 22:56 27.61570 -82.37532 4855 ft 256 kts 200°
2026-04-28 22:57 27.59880 -82.38010 4731 ft 253 kts 181°
2026-04-28 22:57 27.58136 -82.37886 4616 ft 251 kts 168°
2026-04-28 22:57 27.56418 -82.37516 4490 ft 251 kts 165°
2026-04-28 22:57 27.54711 -82.37106 4364 ft 250 kts 165°
2026-04-28 22:58 27.53007 -82.36697 4237 ft 251 kts 165°
2026-04-28 22:58 27.51304 -82.36294 4120 ft 250 kts 166°
2026-04-28 22:58 27.49600 -82.35896 3996 ft 250 kts 165°
2026-04-28 22:58 27.47898 -82.35500 3883 ft 250 kts 166°
2026-04-28 22:59 27.46199 -82.35109 3749 ft 249 kts 166°
2026-04-28 22:59 27.45074 -82.34849 3679 ft 249 kts 166°
2026-04-28 22:59 27.43371 -82.34457 3565 ft 250 kts 166°
2026-04-28 22:59 27.41099 -82.33936 3394 ft 249 kts 165°
2026-04-28 23:00 27.39418 -82.33550 3288 ft 250 kts 165°
2026-04-28 23:00 27.37719 -82.33159 3142 ft 249 kts 166°
2026-04-28 23:00 27.36021 -82.32767 3032 ft 249 kts 165°
2026-04-28 23:00 27.34326 -82.32377 2995 ft 248 kts 165°
2026-04-28 23:01 27.33204 -82.32119 3007 ft 248 kts 166°
2026-04-28 23:01 27.31520 -82.31734 3000 ft 247 kts 166°
2026-04-28 23:01 27.29829 -82.31346 2991 ft 247 kts 166°
2026-04-28 23:01 27.28137 -82.30958 2997 ft 248 kts 166°
2026-04-28 23:02 27.26447 -82.30571 2992 ft 248 kts 166°
2026-04-28 23:02 27.24756 -82.30185 2985 ft 246 kts 166°
2026-04-28 23:02 27.23108 -82.29809 2992 ft 237 kts 166°
2026-04-28 23:02 27.21510 -82.29444 2992 ft 233 kts 166°
2026-04-28 23:03 27.19918 -82.29080 2999 ft 234 kts 165°
2026-04-28 23:03 27.18351 -82.28719 2949 ft 226 kts 164°
2026-04-28 23:03 27.16864 -82.28170 2823 ft 225 kts 155°
2026-04-28 23:03 27.15415 -82.27482 2709 ft 226 kts 153°
2026-04-28 23:04 27.13977 -82.26770 2590 ft 226 kts 153°
2026-04-28 23:04 27.11112 -82.25359 2357 ft 226 kts 154°
2026-04-28 23:04 27.09668 -82.24651 2236 ft 227 kts 154°
2026-04-28 23:05 27.08229 -82.23946 2104 ft 226 kts 154°
2026-04-28 23:05 27.06784 -82.23238 1980 ft 226 kts 154°
2026-04-28 23:05 27.05318 -82.22519 1853 ft 227 kts 155°
2026-04-28 23:05 27.03869 -82.21809 1748 ft 227 kts 155°
2026-04-28 23:06 27.02423 -82.21100 1629 ft 226 kts 155°
2026-04-28 23:06 27.00999 -82.20403 1598 ft 226 kts 155°
2026-04-28 23:06 26.99559 -82.19699 1591 ft 226 kts 155°
2026-04-28 23:06 26.98115 -82.18991 1592 ft 226 kts 156°
2026-04-28 23:07 26.96670 -82.18283 1595 ft 227 kts 155°
2026-04-28 23:07 26.95228 -82.17577 1601 ft 226 kts 155°
2026-04-28 23:07 26.93793 -82.16875 1589 ft 225 kts 156°
2026-04-28 23:07 26.92358 -82.16174 1585 ft 225 kts 156°
2026-04-28 23:08 26.90924 -82.15473 1594 ft 225 kts 155°
2026-04-28 23:08 26.89487 -82.14770 1592 ft 226 kts 155°
2026-04-28 23:08 26.88048 -82.14067 1589 ft 225 kts 154°
2026-04-28 23:08 26.86611 -82.13365 1596 ft 225 kts 155°
2026-04-28 23:09 26.85180 -82.12666 1580 ft 224 kts 155°
2026-04-28 23:09 26.83751 -82.11968 1595 ft 225 kts 155°
2026-04-28 23:09 26.82315 -82.11266 1598 ft 225 kts 155°
2026-04-28 23:09 26.80917 -82.10483 1589 ft 223 kts 144°
2026-04-28 23:10 26.79901 -82.09208 1598 ft 219 kts 116°
2026-04-28 23:10 26.79602 -82.07594 1599 ft 210 kts 82°
2026-04-28 23:10 26.80173 -82.06180 1585 ft 192 kts 45°
2026-04-28 23:10 26.81168 -82.05335 1590 ft 169 kts 31°
2026-04-28 23:11 26.82118 -82.04723 1589 ft 152 kts 29°
2026-04-28 23:11 26.83032 -82.04162 1598 ft 149 kts 28°
2026-04-28 23:11 26.83909 -82.03631 1617 ft 137 kts 28°
2026-04-28 23:11 26.84736 -82.03134 1440 ft 133 kts 31°
2026-04-28 23:12 26.85550 -82.02618 1266 ft 136 kts 29°
2026-04-28 23:12 26.86382 -82.02104 1080 ft 137 kts 29°
2026-04-28 23:12 26.87217 -82.01586 905 ft 137 kts 29°
2026-04-28 23:12 26.88047 -82.01068 726 ft 136 kts 30°
2026-04-28 23:13 26.88873 -82.00552 546 ft 136 kts 31°
2026-04-28 23:13 26.89701 -82.00035 365 ft 137 kts 30°
2026-04-28 23:13 26.90535 -81.99517 119 ft 137 kts 31°
2026-04-28 23:13 26.91317 -81.99022 35 ft 118 kts 30°
2026-04-28 23:14 26.91839 -81.98706 39 ft 57 kts 30°
2026-04-28 23:14 26.92174 -81.98503 36 ft 39 kts 11°
2026-04-28 23:14 26.92249 -81.98570 37 ft 2 kts 247°
2026-04-28 23:15 26.92234 -81.98595 38 ft 14 kts 227°
2026-04-28 23:15 26.92093 -81.98686 35 ft 28 kts 207°
2026-04-28 23:15 26.91925 -81.98792 39 ft 27 kts 210°
2026-04-28 23:15 26.91812 -81.98933 39 ft 24 kts 264°
2026-04-28 23:16 26.91802 -81.99118 39 ft 24 kts 264°
2026-04-28 23:16 26.91786 -81.99307 35 ft 25 kts 265°
2026-04-28 23:16 26.91767 -81.99509 33 ft 26 kts 256°
2026-04-28 23:16 26.91684 -81.99662 32 ft 20 kts 228°
2026-04-28 23:17 26.91649 -81.99723 33 ft 0 kts 240°